Flag for United Kingdom Weather past 2 weeks in Colchester, England, United Kingdom

Now
55 °F

Partly sunny.


Feels Like: 50 °F
Forecast: 44 / 59 °F
Wind: 28 mph from Southwest

Location: Cranfield

Current Time: May 6, 2015 at 7:37:39 PM

Latest Report: May 6, 2015 at 5:20 PM


Visibility: N/A

Pressure: 29.59 "Hg

Humidity: 67%

Dew point: 45 °F

Location of ColchesterLocation

Historic Weather in Colchester — Graph

°F

Colchester temperature yesterday

Maximum temperature yesterday: 59 °F (at 8:50 AM)
Minimum temperature yesterday: 54 °F (at 11:20 AM)
Average temperature yesterday: 57 °F

Past Weeks' High & Low Weather Summary

 TemperatureHumidityPressure
High66 °F (May 3, 2:20 PM)100% (Apr 22, 7:50 AM)30.51 "Hg (Apr 22, 7:50 AM)
Low39 °F (Apr 28, 7:20 AM)38% (Apr 28, 2:20 PM)29.12 "Hg (May 5, 7:50 AM)
Average53 °F66%29.80 "Hg
* Reported Apr 21 5:20 PM — May 6 5:20 PM, Colchester, Weather by CustomWeather, © 2015

Note: Actual official high and low records may vary slightly from our data, if they occured in-between our weather recording intervals... More about our weather records

Advertising

Colchester weather history for previous 24 hours

 ConditionsComfort  
Time TempWeatherWind HumidityBarometerVisibility
5:20 PM
Wed, May 6
55 °FPartly sunny.28 mph67%29.59 "HgN/A
4:50 PM57 °FBroken clouds.25 mph59%29.56 "HgN/A
4:20 PM55 °FBroken clouds.32 mph59%29.53 "HgN/A
3:50 PM57 °FPartly sunny.33 mph59%29.53 "HgN/A
3:20 PM57 °FPartly sunny.28 mph59%29.53 "HgN/A
2:50 PM55 °FBroken clouds.25 mph67%29.53 "HgN/A
2:20 PM54 °FPartly sunny.22 mph77%29.53 "HgN/A
1:50 PM54 °FLight rain. Partly sunny.22 mph77%29.50 "HgN/A
1:20 PM52 °FRain showers. Partly sunny.29 mph82%29.50 "HgN/A
12:50 PM54 °FScattered showers. Scattered clouds.26 mph77%29.50 "HgN/A
12:20 PM50 °FScattered showers. Scattered clouds.26 mph88%29.50 "HgN/A
11:50 AM54 °FSprinkles. Partly sunny.28 mph67%29.47 "HgN/A
11:20 AM54 °FScattered clouds.28 mph72%29.47 "HgN/A
10:50 AM54 °FScattered clouds.32 mph72%29.47 "HgN/A
10:20 AM52 °FPassing clouds.26 mph82%29.50 "HgN/A
9:50 AM50 °FSprinkles. Partly sunny.29 mph82%29.50 "Hg4 mi
9:20 AM52 °FPartly sunny.26 mph72%29.50 "HgN/A
8:50 AM50 °FPartly sunny.26 mph76%29.50 "HgN/A
8:20 AM50 °FScattered clouds.25 mph82%29.50 "HgN/A
7:50 AM50 °FScattered clouds.24 mph82%29.50 "HgN/A
Weather by CustomWeather, © 2015

See weather overviewHow to use our weather pages